DW7371 Weather Reports


Display with metric or nautical units.
time (UTC)temp
F
wind
direction
speed
MPH
gust
MPH
rain 1hr
in
rain 24hr
in
rain mn
in
humidity
%
barometer
mb
20260902062048 59 123 0.0 3.0 0.00 0.00 0.00 87 1005.9
20260902061034 59 125 2.0 9.0 0.00 0.00 0.00 87 1005.8
20260902060042 59 185 2.0 9.0 0.00 0.00 0.00 86 1005.9
20260902053919 60 150 0.0 7.0 0.00 0.00 0.00 84 1006.0
20260902052853 59 147 0.0 3.0 0.00 0.00 0.00 84 1006.1
20260902051819 60 213 0.0 0.0 0.00 0.00 0.00 83 1006.2
20260902045641 60 138 0.0 0.0 0.00 0.00 0.00 82 1006.2
20260902044648 59 116 1.0 4.0 0.00 0.00 0.00 83 1006.3
20260902043618 59 66 0.0 3.0 0.00 0.00 0.00 84 1006.3
20260902042636 60 162 0.0 0.0 0.00 0.00 0.00 83 1006.3
20260902041603 60 178 1.0 3.0 0.00 0.00 0.00 82 1006.4
20260902040619 60 192 0.0 0.0 0.00 0.00 0.00 82 1006.3
20260902035613 60 34 1.0 3.0 0.00 0.00 0.00 81 1006.2
20260902034637 60 97 0.0 3.0 0.00 0.00 0.00 80 1006.2
20260902033640 60 115 0.0 0.0 0.00 0.00 0.00 81 1006.2
20260902032640 60 155 0.0 0.0 0.00 0.00 0.00 80 1006.2
20260902031701 60 116 0.0 0.0 0.00 0.00 0.00 81 1006.2
20260902030634 61 116 0.0 0.0 0.00 0.00 0.00 81 1006.2
20260902025624 61 116 1.0 3.0 0.00 0.00 0.00 80 1006.3
20260902024559 60 174 2.0 6.0 0.00 0.00 0.00 80 1006.2
20260902023541 61 191 3.0 6.0 0.00 0.00 0.00 79 1006.3
20260902022548 62 131 0.0 3.0 0.00 0.00 0.00 79 1006.2
20260902021519 62 128 0.0 3.0 0.00 0.00 0.00 78 1006.2
20260902015352 62 193 1.0 3.0 0.00 0.00 0.00 76 1006.4
20260902014347 63 164 2.0 4.0 0.00 0.00 0.00 76 1006.4
20260902013331 63 163 2.0 6.0 0.00 0.00 0.00 77 1006.4
20260902011206 63 171 2.0 4.0 0.00 0.00 0.00 76 1006.4
20260902010222 63 149 1.0 4.0 0.00 0.00 0.00 75 1006.3
20260902005243 63 153 1.0 6.0 0.00 0.00 0.00 75 1006.2
20260902004238 63 140 1.0 6.0 0.00 0.00 0.00 76 1006.3
20260902003254 63 159 2.0 5.0 0.00 0.00 0.00 76 1006.3
20260902002306 63 196 2.0 8.0 0.00 0.00 0.00 75 1006.3
20260902001246 64 170 2.0 8.0 0.00 0.00 0.00 74 1006.3
20260902000219 64 188 3.0 7.0 0.00 0.00 0.00 74 1006.2
20260901235229 64 141 3.0 6.0 0.00 0.00 0.00 73 1006.3
20260901234219 65 171 2.0 9.0 0.00 0.00 0.00 72 1006.3
20260901233200 65 155 3.0 9.0 0.00 0.00 0.00 72 1006.3
20260901232223 65 157 4.0 11.0 0.00 0.00 0.00 71 1006.3
20260901230054 65 172 8.0 15.0 0.00 0.00 0.00 72 1006.3
20260901225046 65 180 9.0 16.0 0.00 0.00 0.00 72 1006.2
20260901224038 65 205 8.0 16.0 0.00 0.00 0.00 72 1006.3
20260901223100 65 169 9.0 16.0 0.00 0.00 0.00 72 1006.3
20260901220910 65 186 9.0 16.0 0.00 0.00 0.00 72 1006.4
20260901214725 65 167 5.0 19.0 0.00 0.00 0.00 74 1006.4
20260901213706 64 159 6.0 19.0 0.00 0.00 0.00 75 1006.6
20260901212715 64 159 5.0 11.0 0.00 0.00 0.00 76 1006.7
20260901211720 65 169 5.0 12.0 0.00 0.00 0.00 75 1006.8
20260901210705 64 182 5.0 15.0 0.00 0.00 0.00 76 1006.8
20260901205704 64 163 6.0 15.0 0.00 0.00 0.00 76 1006.9
20260901204636 64 203 5.0 12.0 0.00 0.00 0.00 76 1006.9
20260901202519 65 136 8.0 15.0 0.00 0.00 0.00 74 1007.0
20260901201515 66 169 5.0 15.0 0.00 0.00 0.00 73 1006.9
20260901200457 64 165 5.0 15.0 0.00 0.00 0.00 76 1006.8
20260901195504 64 184 7.0 15.0 0.00 0.00 0.00 76 1006.9
20260901193413 63 178 6.0 10.0 0.00 0.00 0.00 81 1006.9
20260901192414 63 117 3.0 8.0 0.00 0.00 0.00 80 1007.0
20260901191409 63 130 5.0 14.0 0.00 0.00 0.00 80 1007.1
20260901190344 63 181 6.0 14.0 0.00 0.00 0.00 82 1007.0
20260901185350 64 210 6.0 20.0 0.00 0.00 0.00 80 1007.0
20260901183210 62 161 7.0 18.0 0.00 0.00 0.00 83 1007.1
20260901182152 62 178 9.0 17.0 0.00 0.00 0.00 84 1007.1
20260901181215 62 192 8.0 16.0 0.00 0.00 0.00 85 1007.1
20260901180239 61 159 9.0 15.0 0.00 0.00 0.00 86 1007.2
20260901175225 61 192 7.0 14.0 0.00 0.00 0.00 84 1007.2
20260901174203 60 158 4.0 11.0 0.00 0.00 0.00 84 1007.1
20260901173218 60 200 4.0 11.0 0.00 0.00 0.00 85 1007.1
20260901172144 59 186 3.0 6.0 0.00 0.00 0.00 86 1007.1
20260901171157 59 167 2.0 6.0 0.00 0.00 0.00 88 1007.1
20260901170145 59 167 2.0 5.0 0.00 0.00 0.00 88 1007.1
20260901165149 58 200 2.0 7.0 0.00 0.00 0.00 89 1007.1
20260901164153 58 201 2.0 7.0 0.00 0.00 0.00 89 1007.1
20260901163141 58 180 1.0 5.0 0.00 0.00 0.00 90 1007.1
20260901162200 57 182 2.0 4.0 0.00 0.00 0.00 91 1007.1
20260901161222 57 182 1.0 4.0 0.00 0.00 0.00 92 1007.1
20260901155116 56 192 3.0 6.0 0.00 0.00 0.00 92 1007.2
20260901154103 56 184 1.0 6.0 0.00 0.00 0.00 93 1007.2
20260901153047 56 165 1.0 4.0 0.00 0.00 0.00 94 1007.2
20260901152036 55 217 0.0 0.0 0.00 0.00 0.00 95 1007.1
20260901151041 55 129 1.0 4.0 0.00 0.00 0.00 95 1007.1
20260901144855 54 175 2.0 4.0 0.00 0.00 0.00 96 1006.9
20260901143909 54 179 2.0 7.0 0.00 0.00 0.00 96 1006.9
20260901142907 54 175 2.0 7.0 0.00 0.00 0.00 96 1006.8
20260901135612 52 165 1.0 4.0 0.00 0.00 0.00 95 1006.5
20260901134616 52 152 0.0 3.0 0.00 0.00 0.00 96 1006.3
20260901133616 52 169 0.0 0.0 0.00 0.00 0.00 95 1006.3
20260901130324 52 118 0.0 1.0 0.00 0.00 0.00 95 1006.1
20260901125346 52 134 0.0 1.0 0.00 0.00 0.00 95 1006.1
20260901124323 52 137 0.0 1.0 0.00 0.00 0.00 95 1006.2
20260901123334 51 176 0.0 0.0 0.00 0.00 0.00 95 1006.2
20260901122339 51 176 0.0 0.0 0.00 0.00 0.00 95 1006.1
20260901121333 51 176 0.0 0.0 0.00 0.00 0.00 95 1006.1
20260901120301 51 176 0.0 0.0 0.00 0.00 0.00 95 1006.1
20260901115313 51 176 0.0 0.0 0.00 0.00 0.00 94 1006.2
20260901114321 51 186 0.0 1.0 0.00 0.00 0.00 94 1006.2
20260901113300 52 177 0.0 0.0 0.00 0.00 0.00 94 1006.3
20260901112324 52 150 0.0 0.0 0.00 0.00 0.00 94 1006.3
20260901111329 52 150 0.0 0.0 0.00 0.00 0.00 93 1006.4
20260901110346 53 150 0.0 0.0 0.00 0.00 0.00 93 1006.3
20260901105344 53 150 0.0 0.0 0.00 0.00 0.00 93 1006.2
20260901104338 52 161 0.0 2.0 0.00 0.00 0.00 92 1006.2
20260901103338 53 173 0.0 2.0 0.00 0.00 0.00 93 1006.2
20260901101228 52 164 0.0 3.0 0.00 0.00 0.00 92 1006.4
20260901100212 53 277 0.0 0.0 0.00 0.00 0.00 91 1006.3
20260901095223 53 277 0.0 0.0 0.00 0.00 0.00 91 1006.3
20260901094222 53 277 0.0 0.0 0.00 0.00 0.00 92 1006.2
20260901093157 54 277 0.0 0.0 0.00 0.00 0.00 90 1006.2
20260901092138 54 277 0.0 0.0 0.00 0.00 0.00 91 1006.2
20260901091121 54 277 0.0 0.0 0.00 0.00 0.00 90 1006.2
20260901090140 54 277 0.0 0.0 0.00 0.00 0.00 90 1006.2
20260901083938 54 277 0.0 0.0 0.00 0.00 0.00 91 1006.2
20260901082952 54 277 0.0 0.0 0.00 0.00 0.00 89 1006.3
20260901082013 55 277 0.0 0.0 0.00 0.00 0.00 88 1006.3
20260901080939 55 277 0.0 0.0 0.00 0.00 0.00 88 1006.2
20260901080004 56 277 0.0 0.0 0.00 0.00 0.00 87 1006.1
20260901074934 56 277 0.0 0.0 0.00 0.00 0.00 87 1006.1
20260901072741 55 277 0.0 0.0 0.00 0.00 0.00 87 1006.1
20260901070610 56 277 0.0 0.0 0.00 0.00 0.00 86 1006.1
20260901065604 56 277 0.0 0.0 0.00 0.00 0.00 85 1006.1
20260901064600 56 277 0.0 0.0 0.00 0.00 0.00 85 1006.3
20260901063611 57 277 0.0 0.0 0.00 0.00 0.00 84 1006.3